Loipe Atzenberg gespurt
 
21.02.2018Höhe
ü. NN
ZeitTemperatur (°C)Nieder-
schlag
Luft-
feuchte
Luft-
druck
Wind
StationaktuellMinimumMaximumaktuellMaximum
Allmannsweiler625 m08:00-3,4-5,1 (00:50)-3,4 (07:40)0,0 l/m²97%1019,012,9 km/h (3 Bft) O-NO17,7 km/h (3 Bft) O-NO (07:40)
Allmendingen541 m08:00-2,4-4,2 (00:45)-2,3 (12:15)0,0 l/m²91%1019,48,0 km/h (2 Bft) O-NO16,1 km/h (3 Bft) O-NO (12:25)
Altshausen574 m07:56-3,0-4,3 (02:09)-3,0 (07:48)0,0 l/m²96%1017,716,1 km/h (3 Bft) NO24,1 km/h (4 Bft) N (07:47)
Amstetten-Reutti663 m08:00-3,5-3,6 (07:45)-3,1 (11:15)0,0 l/m²94%1019,814,5 km/h (3 Bft) N19,3 km/h (3 Bft) N-NW (07:10)
Aulendorf570 m08:00-2,8-4,0 (02:08)-2,8 (07:53)0,0 l/m²93%1018,511,3 km/h (2 Bft) NO20,9 km/h (4 Bft) N (05:40)
Bad Krozingen233 m08:00-0,7-0,8 (07:15)0,3 (13:50)0,0 l/m²81%1020,114,8 km/h (3 Bft) NW26,4 km/h (4 Bft) N (14:25)
Bad Schussenried572 m08:00-2,9-4,2 (01:55)-2,9 (07:45)0,0 l/m²96%1017,514,5 km/h (3 Bft) NO19,3 km/h (3 Bft) NO (04:40)
Bergatreute615 m08:00-3,0-4,3 (01:15)-2,9 (07:15)0,0 l/m²96%1019,116,1 km/h (3 Bft) NO20,9 km/h (4 Bft) O-NO (06:10)
Biberach (Riss), Boehringer533 m07:40-2,5-4,7 (00:30)-2,5 (07:40)0,0 l/m²96%1017,99,4 km/h (2 Bft) N-NO21,6 km/h (4 Bft) NO (07:20)
Biberach (Riss), Realschule553 m08:00-2,8-4,7 (01:10)-2,8 (07:40)0,0 l/m²94%1020,016,1 km/h (3 Bft) NO17,7 km/h (3 Bft) N-NO (06:50)
Bodnegg-Rotheidlen677 m08:00-4,1-5,3 (01:40)-4,1 (07:35)0,0 l/m²95%1019,114,5 km/h (3 Bft) N-NO22,5 km/h (4 Bft) N (05:40)
Burgrieden523 m08:00-3,3-5,5 (00:25)-3,1 (06:25)0,0 l/m²91%1019,614,5 km/h (3 Bft) NO22,5 km/h (4 Bft) N (07:06)
Burgrieden-Hochstetten510 m08:00-2,8-6,3 (00:20)-2,5 (12:05)0,0 l/m²91%1019,914,5 km/h (3 Bft) N-NO22,5 km/h (4 Bft) N-NO (07:40)
Donauwörth411 m08:00-3,7-3,7 (08:00)-2,1 (03:50)0,0 l/m²92%1020,66,4 km/h (2 Bft) W-NW16,1 km/h (3 Bft) N-NW (05:55)
Ebersbach579 m08:00-3,0-4,4 (02:10)-3,0 (07:55)0,0 l/m²96%1019,929,0 km/h (5 Bft) NO29,0 km/h (5 Bft) O-NO (08:00)
Ebersbach-Boos605 m08:00-3,3-4,9 (01:40)-3,3 (07:55)0,0 l/m²96%1019,724,1 km/h (4 Bft) NO30,6 km/h (5 Bft) N-NO (06:50)
Ebersbach-Menzenweiler661 m08:00-3,7-5,3 (02:10)-3,7 (07:50)0,0 l/m²98%1019,70,0 km/h (0 Bft) O-NO0,0 km/h (0 Bft) NO (00:00)
Erlenmoos645 m08:00-2,9-4,2 (00:30)-2,9 (07:45)0,0 l/m²82%1019,412,9 km/h (3 Bft) NO19,3 km/h (3 Bft) O-NO (00:40)
Ertingen569 m08:00-3,0-4,6 (01:10)-3,0 (08:00)0,0 l/m²95%1019,220,9 km/h (4 Bft) N20,9 km/h (4 Bft) N (08:00)
Friedrichshafen405 m08:00-1,3-2,4 (02:25)-1,2 (13:05)0,0 l/m²88%1019,114,5 km/h (3 Bft) N-NO22,5 km/h (4 Bft) N-NO (02:40)
Furkajoch (AT)1630 m07:40-10,8-10,8 (06:20)-9,7 (00:00)0,0 l/m²92%1014,917,7 km/h (3 Bft) N-NO20,9 km/h (4 Bft) N-NO (07:05)
Günzburg443 m08:00-2,2-2,6 (00:00)-2,2 (01:40)0,0 l/m²92%1017,16,4 km/h (2 Bft) N11,3 km/h (2 Bft) N-NO (05:40)
Höchsten802 m08:00-4,8-6,2 (02:50)-4,8 (07:50)0,0 l/m²94%1017,20,0 km/h (0 Bft) NO0,0 km/h (0 Bft) NO (00:00)
Horgenzell618 m08:00-4,7-4,9 (02:50)-3,9 (00:00)0,0 l/m²93%1017,46,4 km/h (2 Bft) O27,4 km/h (4 Bft) NO (02:05)
Hoßkirch632 m08:00-3,6-4,9 (02:25)-3,6 (07:50)0,0 l/m²96%1018,517,7 km/h (3 Bft) N27,4 km/h (4 Bft) N-NO (05:40)
Isny im Allgäu695 m08:00-3,8-4,7 (01:35)-3,8 (08:00)0,0 l/m²92%1018,412,9 km/h (3 Bft) NO19,3 km/h (3 Bft) N-NO (07:05)
Kappel-Grafenhausen163 m07:55-1,5-1,7 (07:40)0,8 (16:55)0,0 l/m²88%1019,012,9 km/h (3 Bft) N-NO20,9 km/h (4 Bft) N-NO (04:45)
Kirchberg an der Iller584 m08:00-3,0-4,1 (23:35)-3,0 (13:45)0,0 l/m²83%1009,90,0 km/h (0 Bft) S-SW7,7 km/h (2 Bft) SW (07:30)
Kißlegg-Staibshof709 m08:00-4,1-5,3 (00:55)-4,1 (07:35)0,0 l/m²97%1019,29,7 km/h (2 Bft) NO20,9 km/h (4 Bft) O (02:00)
Kressbronn398 m08:00-1,9-2,9 (02:54)-1,5 (00:00)0,0 l/m²86%1017,79,7 km/h (2 Bft) N-NW22,5 km/h (4 Bft) N-NW (03:18)
Kreuzthal-Steinbergalm930 m08:00-5,5-6,4 (01:30)-5,4 (08:00)0,0 l/m²100%1019,04,0 km/h (1 Bft) NO21,2 km/h (4 Bft) W-NW (02:10)
Kreuzthal-Steinberggipfel1040 m07:50-6,5-7,4 (01:30)-6,4 (07:50)-100%1019,013,3 km/h (3 Bft) N-NO40,3 km/h (6 Bft) N (02:10)
Kristberg im Montafon (AT)1425 m08:00-8,9-9,0 (06:45)-8,2 (00:15)0,4 l/m²93%1017,30,0 km/h (0 Bft) NO4,8 km/h (1 Bft) N-NW (00:10)
Laupheim500 m08:00-2,9-4,6 (00:15)-2,6 (06:50)0,0 l/m²90%1019,016,1 km/h (3 Bft) O20,9 km/h (4 Bft) O-NO (07:30)
Leutkirch-Heggelbach670 m08:00-3,6-5,7 (00:55)-3,6 (07:55)0,0 l/m²92%1017,80,0 km/h (0 Bft) N-NO12,9 km/h (3 Bft) NO (01:10)
Lindau-Insel420 m05:50-1,9-2,5 (02:45)-1,2 (13:35)0,0 l/m²84%1017,48,0 km/h (2 Bft) N-NO17,7 km/h (3 Bft) NO (01:45)
Lindau-Stadt412 m08:00-1,8-2,8 (02:45)-1,3 (13:35)0,0 l/m²87%1018,111,3 km/h (2 Bft) N20,9 km/h (4 Bft) O-NO (07:05)
Maierhöfen im Allgäu733 m08:10-3,5-4,2 (01:10)-3,4 (06:00)0,0 l/m²92%1018,59,7 km/h (2 Bft) O25,7 km/h (4 Bft) O (01:25)
Maselheim-Sulmingen548 m08:00-3,2-5,9 (00:15)-3,2 (13:10)0,0 l/m²94%1020,914,5 km/h (3 Bft) O-NO19,3 km/h (3 Bft) O (07:35)
Mietingen-Baltringen528 m08:00-3,1-5,8 (00:25)-2,9 (06:40)0,0 l/m²90%1021,311,3 km/h (2 Bft) O17,7 km/h (3 Bft) O-NO (07:40)
Mindelheim-Apfeltrach620 m07:56-3,6-4,6 (23:53)-3,6 (14:46)0,0 l/m²95%1020,06,4 km/h (2 Bft) NO11,3 km/h (2 Bft) N-NW (17:36)
Neresheim552 m08:00-4,5-4,5 (08:00)-3,4 (04:00)0,0 l/m²96%1017,510,1 km/h (2 Bft) NO10,1 km/h (2 Bft) NO (08:00)
Neukirch570 m08:00-2,7-4,0 (02:15)-2,7 (13:30)0,0 l/m²93%1019,00,0 km/h (0 Bft) N0,0 km/h (0 Bft) N (09:00)
Ochsenhausen613 m08:00-2,9-4,9 (00:30)-2,9 (13:25)0,0 l/m²89%1019,53,2 km/h (1 Bft) W9,7 km/h (2 Bft) W (10:20)
Ostrach619 m08:00-2,6-3,6 (02:25)-2,5 (13:40)0,0 l/m²95%1017,917,7 km/h (3 Bft) N-NO22,5 km/h (4 Bft) N-NO (05:50)
Ravensburg428 m08:00-1,2-2,3 (01:45)-1,2 (07:55)0,0 l/m²90%1018,217,7 km/h (3 Bft) NO25,7 km/h (4 Bft) O-NO (02:25)
Ravensburg-Wernsreute511 m08:00-2,6-3,7 (04:08)-2,6 (13:28)0,0 l/m²92%1020,724,1 km/h (4 Bft) N-NO33,8 km/h (5 Bft) NO (06:32)
Reichenbach an der Fils343 m08:00-1,5-2,4 (03:15)-1,5 (07:45)0,0 l/m²84%1022,60,0 km/h (0 Bft) N-NW0,0 km/h (0 Bft) N (00:00)
Reinstetten559 m08:00-3,0-5,7 (00:15)-3,0 (07:45)0,0 l/m²94%1019,816,1 km/h (3 Bft) N-NO20,9 km/h (4 Bft) N (07:25)
Riedlingen530 m08:00-2,7-4,1 (01:05)-2,7 (07:50)0,0 l/m²92%1019,517,7 km/h (3 Bft) O-NO20,9 km/h (4 Bft) N-NO (06:30)
Rißtissen489 m08:00-2,1-4,4 (00:15)-1,9 (06:45)0,0 l/m²93%1017,112,9 km/h (3 Bft) O-NO20,9 km/h (4 Bft) N-NO (07:25)
Schemmerhofen520 m08:00-2,6-4,6 (00:25)-2,4 (07:10)0,0 l/m²94%1019,112,9 km/h (3 Bft) NO22,5 km/h (4 Bft) O-NO (07:40)
Silbertal im Montafon (AT)884 m08:00-4,0-4,0 (07:45)-3,4 (00:00)0,2 l/m²94%1017,30,0 km/h (0 Bft) W-NW4,8 km/h (1 Bft) W (00:20)
Tettnang466 m08:00-1,8-3,0 (02:15)-1,8 (00:00)0,0 l/m²87%1017,722,5 km/h (4 Bft) NO27,4 km/h (4 Bft) N-NW (02:40)
Tuttlingen662 m07:55-4,7-4,8 (03:35)-4,3 (00:00)0,0 l/m²88%1019,39,2 km/h (2 Bft) O21,4 km/h (4 Bft) O-SO (03:45)
Waldburg707 m08:00-3,6-4,9 (01:30)-3,6 (07:40)0,0 l/m²95%1018,617,7 km/h (3 Bft) O-SO27,4 km/h (4 Bft) O-NO (02:35)
Waltenhofen im Allgäu720 m08:00-3,7-4,2 (00:10)-3,6 (04:45)0,0 l/m²88%1018,00,0 km/h (0 Bft) O-NO1,6 km/h (1 Bft) O-NO (00:40)
Weingarten500 m08:00-1,9-3,1 (01:40)-1,9 (07:50)0,0 l/m²91%1018,814,5 km/h (3 Bft) N19,3 km/h (3 Bft) N (02:25)
Winterlingen785 m07:00-5,1-5,4 (02:15)-4,9 (00:00)0,0 l/m²96%1017,34,3 km/h (1 Bft) NO7,9 km/h (2 Bft) N-NW (05:50)
 
 
 Herausgeber: Wetterstation Neresheim
 Redaktion: Guido Wekemann
 
 

Winter 2017 / 2018

Ausgabe Nr. 79
15. Dezember 2017
 

Herbst 2017

Ausgabe Nr. 78
15. September 2017
 

Sommer 2017

Ausgabe Nr. 77
10. Juni 2017
 

Frühjahr 2017

Ausgabe Nr. 76
13. März 2017
 

Winter 2016 / 2017

Ausgabe Nr. 75
15. Dezember 2016
 

Herbst 2016

Ausgabe Nr. 74
15. September 2016
 

Extrablatt 1/2016

Extrablatt 1/2016
15. Juli 2016
 

Sommer 2016

Ausgabe Nr. 73
15. Juni 2016
 

Frühjahr 2016

Ausgabe Nr. 72
16. März 2016
 

Extrablatt 1/2015

Extrablatt 1/2015
18. Januar 2016
 

Winter 2015 / 2016

Ausgabe Nr. 71
16. Dezember 2015
 

Herbst 2015

Ausgabe Nr. 70
15. September 2015
 

Sommer 2015

Ausgabe Nr. 69
10. Juni 2015
 

Frühjahr 2015

Ausgabe Nr. 68
16. März 2015
 

Winter 2014 / 2015

Ausgabe Nr. 67
08. Dezember 2014
 

Herbst 2014

Ausgabe Nr. 66
15. September 2014
 

Sommer 2014

Ausgabe Nr. 65
05. Juli 2014
 

Frühjahr 2014

Ausgabe Nr. 64
19. März 2014
 

Winter 2013 / 2014

Ausgabe Nr. 63
16. Dezember 2013
 

Herbst 2013

Ausgabe Nr. 62
23. September 2013
 

Sommer 2013

Ausgabe Nr. 61
17. Juni 2013
 

Frühjahr 2013

Ausgabe Nr. 60
05. April 2013
 

Winter 2012 / 2013

Ausgabe Nr. 59
23. Dezember 2012
 

Herbst 2012

Ausgabe Nr. 58
16. September 2012
 

Sommer 2012

Ausgabe Nr. 57
12. Juni 2012
 

Frühjahr 2012

Ausgabe Nr. 56
12. März 2012
 

Winter 2011/12

Ausgabe Nr. 55
15. Dezember 2011
 

Herbst 2011

Ausgabe Nr. 54
12. September 2011
 

Sommer 2011

Ausgabe Nr. 53
10. Juni 2011
 

Frühjahr 2011

Ausgabe Nr. 52
10. März 2011
 

Winter 2010/2011

Ausgabe Nr. 51
10. Dezember 2010
 

Herbst 2010

Ausgabe Nr. 50
10. September 2010
 

Sommer 2010

Ausgabe Nr. 49
12. Juni 2010
 

Frühjahr 2010

Ausgabe Nr. 48
08. März 2010
 

Winter 2009/2010

Ausgabe Nr. 47
06. Dezember 2009
 

Extrablatt anlässlich der Weltklimakonferenz in Kopenhagen

Extrablatt 2/2009
06. Dezember 2009
 

Herbst 2009

Ausgabe Nr. 46
16. September 2009
 

Sommer 2009

Ausgabe Nr. 45
10. Juni 2009
 

Extrablatt
Bericht vom
4. Extremwetterkongress

Extrablatt 1/2009
10. März 2009
 

Frühjahr 2009

Ausgabe Nr. 44
10. März 2009
 

Winter 2008

Ausgabe Nr. 43
06. Dezember 2008
 

Herbst 2008

Ausgabe Nr. 42
06. September 2008
 

Extrablatt

Extrablatt Nr. 41/1
23. Juni 2008
 

Sommer 2008

Ausgabe Nr. 41
06. Juni 2008
 

Frühjahr 2008

Ausgabe Nr. 40
06. März 2008
 

Winter 2007

Ausgabe Nr. 39
06. Dezember 2007
 

Herbst 2007

Ausgabe Nr. 38
06. September 2007
 

Sommer 2007

Ausgabe Nr. 37
06. Juni 2007
 

Frühjahr 2007

Ausgabe Nr. 36
06. März 2007
 

Winter 2006

Ausgabe Nr. 35
06. Dezember 2006
 

Herbst 2006

Ausgabe Nr. 34
06. September 2006
 

Sommer 2006

Ausgabe Nr. 33
06. Juni 2006
 

Bericht vom
1. Extremwetterkongress

Extrablatt 1/2006
06. März 2006
 

Frühjahr 2006

Ausgabe Nr. 32
06. März 2006
 

Winter 2005

Ausgabe Nr. 31
06. Dezember 2005
 

Herbst 2005

Ausgabe Nr. 30
06. September 2005
 

Sommer 2005

Ausgabe Nr. 29
06. Juni 2005
 

Frühjahr 2005

Ausgabe Nr. 28
06. März 2005
 

Winter 2004

Ausgabe Nr. 27
06. Dezember 2004
 

Herbst 2004

Ausgabe Nr. 26
06. September 2004
 

Sommer 2004

Ausgabe Nr. 25
06. Juni 2004
 

Frühjahr 2004

Ausgabe Nr. 24
06. März 2004
 

Winter 2003

Ausgabe Nr. 23
06. Dezember 2003
 

Herbst 2003

Ausgabe Nr. 22
06. September 2003
 

Sommer 2003

Ausgabe Nr. 21
06. Juni 2003
 

Frühjahr 2003

Ausgabe Nr. 20
06. März 2003
 

Winter 2002

Ausgabe Nr. 19
06. Dezember 2002
 

Herbst 2002

Ausgabe Nr. 18
06. September 2002
 

Sommer 2002

Ausgabe Nr. 17
06. Juni 2002
 

Frühjahr 2002

Ausgabe Nr. 16
06. März 2002
 

Winter 2001

Ausgabe Nr. 15
06. Dezember 2001
 

Herbst 2001

Ausgabe Nr. 14
06. September 2001
 

Sommer 2001

Ausgabe Nr. 13
06. Juni 2001
 

Frühjahr 2001

Ausgabe Nr. 12
06. März 2001
 
Herbst 2000
Ausgabe Nr. 11
06. Dezember 2000
 

Sommer 2000

Ausgabe Nr. 10
06. September 2000
 

Frühjahr 2000

Ausgabe Nr. 9
06. Juni 2000
 

Winter 1999/2000

Ausgabe Nr. 8
06. März 2000
 

Herbst 1999

Ausgabe Nr. 7
05. Dezember 1999
 

Sommer 1999

Ausgabe Nr. 6
06. September 1999
 

Frühjahr 1999

Ausgabe Nr. 5
02. Juni 1999
 

Winter 1998/99

Ausgabe Nr. 4
05. März 1999
 

Herbst 1998

Ausgabe Nr. 3
 

Sommer 1998

Ausgabe Nr. 2
 

Frühjahr 1998

Ausgabe Nr. 1
 
 
 presse
| vorträge
| internetseite
 
wetterstationen
wetterstationen
- derzeit 66 Stationen
wetterstationen
wetterstationen
- kartographische Darstellung
niederschlagsdatenbank
niederschlagsstationen
- derzeit 102 Stationen
niederschlagsdatenbank
niederschlagsstationen
- kartographische Darstellung
webcams
interessante webcams
im Vorhersagegebiet
 
Di. 7.30 Uhr - Mi. 7.30 Uhr (MEZ)
1.Langenau2,5 l/m²
2.Leutkirch-Adrazhofen1,0 l/m²
3.Pfaffenhofen-Kadeltshofen1,0 l/m²
4.Herbertingen
Drosselweg
0,2 l/m²
5.Öpfingen0,2 l/m²
6.Bad Waldsee-Haisterkirch0,1 l/m²
7.Mittelbiberach-Reute0,1 l/m²
8.Ochsenhausen0,1 l/m²
9.Weingarten
Laurastraße
0,1 l/m²
10.Bad Schussenried
Konradstraße
0,1 l/m²
11.Aulendorf0,0 l/m²
12.Füramoos0,0 l/m²
13.Sigmaringendorf0,0 l/m²
14.Isny0,0 l/m²
 
Mi. 21.02.2018 - 7.30 Uhr (MEZ)
1.Ochsenhausen20 cm
2.Herbertingen
Drosselweg
18cm
3.Bad Saulgau
Walserweg
15 cm
4.Mittelbiberach-Reute15 cm
5.Öpfingen14 cm
6.Tuttlingen-Möhringen
Eßlinger Straße
12 cm
7.Bad Schussenried
Konradstraße
12 cm
8.Pfaffenhofen-Kadeltshofen11 cm
9.Langenau10cm
10.Leutkirch-Adrazhofen8 cm
11.Isny8 cm
12.Aulendorf6 cm
13.Riedhausen2 cm
14.Weingarten
Laurastraße
Reste
 
  treffpunkt & service
 
 newsletter
Wer hin und wieder aktuelle Informationen erhalten möchte, der abonniere den kostenlosen Newsletter der wws.
 
zugriffe:
insgesamt: 35.821.273
aktueller monat: 240.988
heute: 1.808
momentan online: 67
 
 
monatshöchstwert: 653.625
vorheriger monat: 408.471
gestern: 10.639
tageshöchstwert: 41.209
 
wetterwarte süd
 
konradstraße 3
info@wetterwarte-sued.com
roland roth
 
88427 bad schussenried